Time,TemperatureF,DewpointF,PressureIn,WindDirection,WindDirectionDegrees,WindSpeedMPH,WindSpeedGustMPH,Humidity,HourlyPrecipIn,Conditions,Clouds,dailyrainin,SoftwareType,DateUTC
2013-03-03 00:01:00,19.0,12.1,29.69,North,0,0.0,0.0,74,0.00,,---,0.00,VWS V14.00,2013-03-03 06:01:00,
2013-03-03 00:06:00,18.8,11.9,29.69,North,0,0.0,0.0,74,0.00,,---,0.00,VWS V14.00,2013-03-03 06:06:00,
2013-03-03 00:11:00,18.6,11.7,29.69,North,0,0.0,0.0,74,0.00,,---,0.00,VWS V14.00,2013-03-03 06:11:00,
2013-03-03 00:16:00,18.6,11.7,29.69,North,0,0.0,0.0,74,0.00,,---,0.00,VWS V14.00,2013-03-03 06:16:00,
2013-03-03 00:21:00,18.5,11.6,29.69,North,0,0.0,0.0,74,0.00,,---,0.00,VWS V14.00,2013-03-03 06:21:00,
2013-03-03 00:26:00,18.5,11.6,29.69,North,0,0.0,0.0,74,0.00,,---,0.00,VWS V14.00,2013-03-03 06:26:00,
2013-03-03 00:31:00,18.5,11.9,29.69,North,0,0.0,0.0,75,0.00,,---,0.00,VWS V14.00,2013-03-03 06:31:00,
2013-03-03 00:36:00,18.5,11.9,29.69,North,0,0.0,0.0,75,0.00,,---,0.00,VWS V14.00,2013-03-03 06:36:00,
2013-03-03 00:41:00,18.3,11.7,29.69,North,0,0.0,0.0,75,0.00,,---,0.00,VWS V14.00,2013-03-03 06:41:00,
2013-03-03 00:46:00,18.3,11.7,29.69,North,0,0.0,0.0,75,0.00,,---,0.00,VWS V14.00,2013-03-03 06:46:00,
2013-03-03 00:51:00,18.3,11.7,29.69,North,0,0.0,0.0,75,0.00,,---,0.00,VWS V14.00,2013-03-03 06:51:00,
2013-03-03 00:56:00,18.3,11.7,29.69,North,0,0.0,0.0,75,0.00,,---,0.00,VWS V14.00,2013-03-03 06:56:00,
2013-03-03 01:01:00,18.1,11.5,29.69,North,0,0.0,0.0,75,0.00,,---,0.00,VWS V14.00,2013-03-03 07:01:00,
2013-03-03 01:06:00,18.1,11.5,29.69,North,0,0.0,0.0,75,0.00,,---,0.00,VWS V14.00,2013-03-03 07:06:00,
2013-03-03 01:11:00,17.9,11.3,29.69,North,0,0.0,0.0,75,0.00,,---,0.00,VWS V14.00,2013-03-03 07:11:00,
2013-03-03 01:16:00,17.9,11.3,29.69,North,0,0.0,0.0,75,0.00,,---,0.00,VWS V14.00,2013-03-03 07:16:00,
2013-03-03 01:21:00,17.9,11.3,29.69,North,0,0.0,0.0,75,0.00,,---,0.00,VWS V14.00,2013-03-03 07:21:00,
2013-03-03 01:26:00,17.9,11.3,29.69,North,0,0.0,0.0,75,0.00,,---,0.00,VWS V14.00,2013-03-03 07:26:00,
2013-03-03 01:31:00,17.7,11.1,29.70,North,0,0.0,0.0,75,0.00,,---,0.00,VWS V14.00,2013-03-03 07:31:00,
2013-03-03 01:36:00,17.7,11.4,29.69,North,0,0.0,0.0,76,0.00,,---,0.00,VWS V14.00,2013-03-03 07:36:00,
2013-03-03 01:41:00,17.7,11.4,29.69,North,0,0.0,0.0,76,0.00,,---,0.00,VWS V14.00,2013-03-03 07:41:00,
2013-03-03 01:46:00,17.7,11.4,29.69,North,0,0.0,0.0,76,0.00,,---,0.00,VWS V14.00,2013-03-03 07:46:00,
2013-03-03 01:51:00,17.7,11.4,29.69,North,0,0.0,0.0,76,0.00,,---,0.00,VWS V14.00,2013-03-03 07:51:00,
2013-03-03 01:56:00,17.6,11.3,29.68,North,0,0.0,0.0,76,0.00,,---,0.00,VWS V14.00,2013-03-03 07:56:00,
2013-03-03 02:01:00,17.4,11.1,29.68,North,0,0.0,0.0,76,0.00,,---,0.00,VWS V14.00,2013-03-03 08:01:00,
2013-03-03 02:06:00,17.4,11.1,29.68,North,0,0.0,0.0,76,0.00,,---,0.00,VWS V14.00,2013-03-03 08:06:00,
2013-03-03 02:11:00,17.2,10.9,29.68,North,0,0.0,0.0,76,0.00,,---,0.00,VWS V14.00,2013-03-03 08:11:00,
2013-03-03 02:16:00,17.2,10.9,29.68,North,0,0.0,0.0,76,0.00,,---,0.00,VWS V14.00,2013-03-03 08:16:00,
2013-03-03 02:21:00,16.8,10.6,29.68,North,0,0.0,0.0,76,0.00,,---,0.00,VWS V14.00,2013-03-03 08:21:00,
2013-03-03 02:26:00,16.8,10.6,29.67,North,0,0.0,0.0,76,0.00,,---,0.00,VWS V14.00,2013-03-03 08:26:00,
2013-03-03 02:31:00,16.8,10.6,29.67,North,0,0.0,0.0,76,0.00,,---,0.00,VWS V14.00,2013-03-03 08:31:00,
2013-03-03 02:36:00,16.8,10.6,29.67,North,0,0.0,0.0,76,0.00,,---,0.00,VWS V14.00,2013-03-03 08:36:00,
2013-03-03 02:41:00,16.7,10.5,29.66,North,0,0.0,0.0,76,0.00,,---,0.00,VWS V14.00,2013-03-03 08:41:00,
2013-03-03 02:46:00,16.5,10.3,29.67,North,0,0.0,0.0,76,0.00,,---,0.00,VWS V14.00,2013-03-03 08:46:00,
2013-03-03 02:51:00,16.3,10.1,29.67,North,0,0.0,0.0,76,0.00,,---,0.00,VWS V14.00,2013-03-03 08:51:00,
2013-03-03 02:56:00,16.3,10.1,29.66,North,0,0.0,0.0,76,0.00,,---,0.00,VWS V14.00,2013-03-03 08:56:00,
2013-03-03 03:01:00,16.1,10.2,29.66,North,0,0.0,0.0,77,0.00,,---,0.00,VWS V14.00,2013-03-03 09:01:00,
2013-03-03 03:07:00,15.9,10.0,29.66,North,0,0.0,0.0,77,0.00,,---,0.00,VWS V14.00,2013-03-03 09:07:00,
2013-03-03 03:12:00,15.9,10.0,29.66,North,0,0.0,0.0,77,0.00,,---,0.00,VWS V14.00,2013-03-03 09:12:00,
2013-03-03 03:17:00,15.9,10.0,29.66,North,0,0.0,0.0,77,0.00,,---,0.00,VWS V14.00,2013-03-03 09:17:00,
2013-03-03 03:23:00,15.6,9.7,29.66,North,0,0.0,0.0,77,0.00,,---,0.00,VWS V14.00,2013-03-03 09:23:00,
2013-03-03 03:29:00,15.6,9.7,29.66,North,0,0.0,0.0,77,0.00,,---,0.00,VWS V14.00,2013-03-03 09:29:00,
2013-03-03 03:34:00,15.6,9.7,29.65,North,0,0.0,0.0,77,0.00,,---,0.00,VWS V14.00,2013-03-03 09:34:00,
2013-03-03 03:39:00,15.6,9.7,29.65,North,0,0.0,0.0,77,0.00,,---,0.00,VWS V14.00,2013-03-03 09:39:00,
2013-03-03 03:44:00,15.4,9.5,29.66,North,0,0.0,0.0,77,0.00,,---,0.00,VWS V14.00,2013-03-03 09:44:00,
2013-03-03 03:49:00,15.4,9.5,29.66,North,0,0.0,0.0,77,0.00,,---,0.00,VWS V14.00,2013-03-03 09:49:00,
2013-03-03 03:55:00,15.4,9.5,29.66,North,0,0.0,0.0,77,0.00,,---,0.00,VWS V14.00,2013-03-03 09:55:00,
2013-03-03 04:00:00,15.4,9.5,29.66,North,0,0.0,0.0,77,0.00,,---,0.00,VWS V14.00,2013-03-03 10:00:00,
2013-03-03 04:05:00,15.4,9.5,29.66,North,0,0.0,0.0,77,0.00,,---,0.00,VWS V14.00,2013-03-03 10:05:00,
2013-03-03 04:10:00,15.4,9.5,29.66,North,0,0.0,0.0,77,0.00,,---,0.00,VWS V14.00,2013-03-03 10:10:00,
2013-03-03 04:16:00,15.4,9.8,29.66,North,0,0.0,0.0,78,0.00,,---,0.00,VWS V14.00,2013-03-03 10:16:00,
2013-03-03 04:22:00,15.4,9.8,29.66,North,0,0.0,0.0,78,0.00,,---,0.00,VWS V14.00,2013-03-03 10:22:00,
2013-03-03 04:27:00,15.2,9.6,29.66,North,0,0.0,0.0,78,0.00,,---,0.00,VWS V14.00,2013-03-03 10:27:00,
2013-03-03 04:33:00,15.2,9.6,29.66,North,0,0.0,0.0,78,0.00,,---,0.00,VWS V14.00,2013-03-03 10:33:00,
2013-03-03 04:39:00,15.2,9.6,29.66,North,0,0.0,0.0,78,0.00,,---,0.00,VWS V14.00,2013-03-03 10:39:00,
2013-03-03 04:45:00,15.2,9.6,29.66,North,0,0.0,0.0,78,0.00,,---,0.00,VWS V14.00,2013-03-03 10:45:00,
2013-03-03 04:51:00,15.0,9.4,29.66,North,0,0.0,0.0,78,0.00,,---,0.00,VWS V14.00,2013-03-03 10:51:00,
2013-03-03 04:56:00,15.0,9.4,29.66,North,0,0.0,0.0,78,0.00,,---,0.00,VWS V14.00,2013-03-03 10:56:00,
2013-03-03 05:01:00,15.0,9.4,29.66,North,0,0.0,0.0,78,0.00,,---,0.00,VWS V14.00,2013-03-03 11:01:00,
2013-03-03 05:06:00,15.0,9.4,29.67,North,0,0.0,0.0,78,0.00,,---,0.00,VWS V14.00,2013-03-03 11:06:00,
2013-03-03 05:11:00,15.0,9.4,29.67,North,0,0.0,0.0,78,0.00,,---,0.00,VWS V14.00,2013-03-03 11:11:00,
2013-03-03 05:16:00,14.9,9.3,29.67,North,0,0.0,0.0,78,0.00,,---,0.00,VWS V14.00,2013-03-03 11:16:00,
2013-03-03 05:21:00,14.9,9.3,29.67,North,0,0.0,0.0,78,0.00,,---,0.00,VWS V14.00,2013-03-03 11:21:00,
2013-03-03 05:27:00,14.9,9.3,29.67,North,0,0.0,0.0,78,0.00,,---,0.00,VWS V14.00,2013-03-03 11:27:00,
2013-03-03 05:32:00,14.9,9.3,29.67,North,0,0.0,0.0,78,0.00,,---,0.00,VWS V14.00,2013-03-03 11:32:00,
2013-03-03 05:37:00,14.9,9.3,29.67,North,0,0.0,0.0,78,0.00,,---,0.00,VWS V14.00,2013-03-03 11:37:00,
2013-03-03 05:42:00,14.9,9.6,29.67,North,0,0.0,0.0,79,0.00,,---,0.00,VWS V14.00,2013-03-03 11:42:00,
2013-03-03 05:48:00,14.9,9.6,29.67,North,0,0.0,0.0,79,0.00,,---,0.00,VWS V14.00,2013-03-03 11:48:00,
2013-03-03 05:53:00,14.9,9.6,29.67,North,0,0.0,0.0,79,0.00,,---,0.00,VWS V14.00,2013-03-03 11:53:00,
2013-03-03 05:58:00,14.7,9.4,29.67,North,0,0.0,0.0,79,0.00,,---,0.00,VWS V14.00,2013-03-03 11:58:00,
2013-03-03 06:03:00,14.7,9.4,29.68,North,0,0.0,0.0,79,0.00,,---,0.00,VWS V14.00,2013-03-03 12:03:00,
2013-03-03 06:08:00,14.7,9.4,29.68,North,0,0.0,0.0,79,0.00,,---,0.00,VWS V14.00,2013-03-03 12:08:00,
2013-03-03 06:13:00,14.5,9.2,29.68,North,0,0.0,0.0,79,0.00,,---,0.00,VWS V14.00,2013-03-03 12:13:00,
2013-03-03 06:18:00,14.5,9.2,29.68,North,0,0.0,0.0,79,0.00,,---,0.00,VWS V14.00,2013-03-03 12:18:00,
2013-03-03 06:23:00,14.3,9.0,29.67,North,0,0.0,0.0,79,0.00,,---,0.00,VWS V14.00,2013-03-03 12:23:00,
2013-03-03 06:28:00,14.1,8.8,29.67,North,0,0.0,0.0,79,0.00,,---,0.00,VWS V14.00,2013-03-03 12:28:00,
2013-03-03 06:33:00,14.1,8.8,29.67,North,0,0.0,0.0,79,0.00,,---,0.00,VWS V14.00,2013-03-03 12:33:00,
2013-03-03 06:38:00,14.1,8.8,29.67,North,0,0.0,0.0,79,0.00,,---,0.00,VWS V14.00,2013-03-03 12:38:00,
2013-03-03 06:43:00,14.3,9.3,29.67,North,0,0.0,0.0,80,0.00,,---,0.00,VWS V14.00,2013-03-03 12:43:00,
2013-03-03 06:48:00,14.5,9.5,29.67,North,0,0.0,0.0,80,0.00,,---,0.00,VWS V14.00,2013-03-03 12:48:00,
2013-03-03 06:53:00,14.7,9.7,29.67,North,0,0.0,0.0,80,0.00,,---,0.00,VWS V14.00,2013-03-03 12:53:00,
2013-03-03 06:58:00,14.9,9.9,29.67,North,0,0.0,0.0,80,0.00,,---,0.00,VWS V14.00,2013-03-03 12:58:00,
2013-03-03 07:03:00,15.2,10.1,29.67,North,0,0.0,0.0,80,0.00,,---,0.00,VWS V14.00,2013-03-03 13:03:00,
2013-03-03 07:08:00,15.9,10.8,29.67,North,0,0.0,0.0,80,0.00,,---,0.00,VWS V14.00,2013-03-03 13:08:00,
2013-03-03 07:13:00,16.3,11.5,29.67,North,0,0.0,0.0,81,0.00,,---,0.00,VWS V14.00,2013-03-03 13:13:00,
2013-03-03 07:18:00,16.8,12.0,29.67,North,0,0.0,0.0,81,0.00,,---,0.00,VWS V14.00,2013-03-03 13:18:00,
2013-03-03 07:23:00,17.4,12.6,29.67,North,0,0.0,0.0,81,0.00,,---,0.00,VWS V14.00,2013-03-03 13:23:00,
2013-03-03 07:28:00,17.7,12.9,29.67,North,0,0.0,0.0,81,0.00,,---,0.00,VWS V14.00,2013-03-03 13:28:00,
2013-03-03 07:34:00,18.3,13.5,29.67,North,0,0.0,0.0,81,0.00,,---,0.00,VWS V14.00,2013-03-03 13:34:00,
2013-03-03 07:39:00,19.0,14.1,29.67,North,0,0.0,0.0,81,0.00,,---,0.00,VWS V14.00,2013-03-03 13:39:00,
2013-03-03 07:44:00,19.5,14.6,29.68,North,0,0.0,0.0,81,0.00,,---,0.00,VWS V14.00,2013-03-03 13:44:00,
2013-03-03 07:49:00,20.1,15.2,29.68,North,0,0.0,0.0,81,0.00,,---,0.00,VWS V14.00,2013-03-03 13:49:00,
2013-03-03 07:54:00,20.8,15.9,29.68,WNW,292,0.0,0.0,81,0.00,,---,0.00,VWS V14.00,2013-03-03 13:54:00,
2013-03-03 07:59:00,21.7,16.8,29.68,WNW,292,0.0,0.0,81,0.00,,---,0.00,VWS V14.00,2013-03-03 13:59:00,
2013-03-03 08:04:00,22.2,17.0,29.67,WNW,292,0.0,0.0,80,0.00,,---,0.00,VWS V14.00,2013-03-03 14:04:00,
2013-03-03 08:09:00,23.1,17.6,29.67,WNW,292,0.0,0.0,79,0.00,,---,0.00,VWS V14.00,2013-03-03 14:09:00,
2013-03-03 08:14:00,23.7,17.9,29.67,WNW,292,0.0,0.0,78,0.00,,---,0.00,VWS V14.00,2013-03-03 14:14:00,
2013-03-03 08:19:00,24.0,17.9,29.67,WNW,292,0.0,0.0,77,0.00,,---,0.00,VWS V14.00,2013-03-03 14:19:00,
2013-03-03 08:24:00,24.4,17.9,29.67,SE,135,0.0,0.0,76,0.00,,---,0.00,VWS V14.00,2013-03-03 14:24:00,
2013-03-03 08:29:00,24.9,18.1,29.67,SE,135,0.0,0.0,75,0.00,,---,0.00,VWS V14.00,2013-03-03 14:29:00,
2013-03-03 08:34:00,24.9,18.1,29.67,SE,135,0.0,0.0,75,0.00,,---,0.00,VWS V14.00,2013-03-03 14:34:00,
2013-03-03 08:39:00,25.3,18.2,29.67,SE,135,0.0,0.0,74,0.00,,---,0.00,VWS V14.00,2013-03-03 14:39:00,
2013-03-03 08:44:00,25.8,18.7,29.67,SE,135,0.0,0.0,74,0.00,,---,0.00,VWS V14.00,2013-03-03 14:44:00,
2013-03-03 08:49:00,26.4,19.2,29.67,SE,135,0.0,0.0,74,0.00,,---,0.00,VWS V14.00,2013-03-03 14:49:00,
2013-03-03 08:54:00,27.3,19.8,29.67,SE,135,0.0,0.0,73,0.00,,---,0.00,VWS V14.00,2013-03-03 14:54:00,
2013-03-03 08:59:00,28.0,20.5,29.67,SE,135,0.0,0.0,73,0.00,,---,0.00,VWS V14.00,2013-03-03 14:59:00,
2013-03-03 09:04:00,28.5,21.0,29.67,SE,135,0.0,0.0,73,0.00,,---,0.00,VWS V14.00,2013-03-03 15:04:00,
2013-03-03 09:09:00,29.1,21.5,29.67,SE,135,0.0,0.0,73,0.00,,---,0.00,VWS V14.00,2013-03-03 15:09:00,
2013-03-03 09:14:00,29.8,22.2,29.67,SE,135,0.0,0.0,73,0.00,,---,0.00,VWS V14.00,2013-03-03 15:14:00,
2013-03-03 09:19:00,30.7,22.8,29.66,SSE,158,0.0,0.0,72,0.00,,---,0.00,VWS V14.00,2013-03-03 15:19:00,
2013-03-03 09:25:00,31.6,23.3,29.67,SSE,158,0.0,0.0,71,0.00,,---,0.00,VWS V14.00,2013-03-03 15:25:00,
2013-03-03 09:30:00,32.1,23.4,29.66,SSE,158,0.0,0.0,70,0.00,,---,0.00,VWS V14.00,2013-03-03 15:30:00,
2013-03-03 09:35:00,32.5,22.8,29.67,SSE,158,0.0,0.0,67,0.00,,---,0.00,VWS V14.00,2013-03-03 15:35:00,
2013-03-03 09:40:00,32.5,22.4,29.66,South,180,0.0,0.0,66,0.00,,---,0.00,VWS V14.00,2013-03-03 15:40:00,
2013-03-03 09:45:00,33.0,22.9,29.67,SW,225,0.8,0.8,66,0.00,,---,0.00,VWS V14.00,2013-03-03 15:45:00,
2013-03-03 09:50:00,33.6,23.5,29.66,SW,225,2.0,2.0,66,0.00,,---,0.00,VWS V14.00,2013-03-03 15:50:00,
2013-03-03 09:55:00,34.1,23.6,29.67,SW,225,0.0,0.0,65,0.00,,---,0.00,VWS V14.00,2013-03-03 15:55:00,
2013-03-03 10:00:00,34.3,23.4,29.66,SW,225,0.0,0.0,64,0.00,,---,0.00,VWS V14.00,2013-03-03 16:00:00,
2013-03-03 10:05:00,34.7,23.4,29.66,SW,225,0.0,0.0,63,0.00,,---,0.00,VWS V14.00,2013-03-03 16:05:00,
2013-03-03 10:10:00,34.8,23.5,29.66,SW,225,0.0,3.5,63,0.00,,---,0.00,VWS V14.00,2013-03-03 16:10:00,
2013-03-03 10:15:00,35.4,24.1,29.66,SW,225,0.0,0.0,63,0.00,,---,0.00,VWS V14.00,2013-03-03 16:15:00,
2013-03-03 10:20:00,35.7,23.6,29.66,SW,225,0.0,0.0,61,0.00,,---,0.00,VWS V14.00,2013-03-03 16:20:00,
2013-03-03 10:25:00,35.9,23.8,29.66,SW,225,0.0,0.0,61,0.00,,---,0.00,VWS V14.00,2013-03-03 16:25:00,
2013-03-03 10:30:00,36.3,23.4,29.66,SW,225,0.0,0.0,59,0.00,,---,0.00,VWS V14.00,2013-03-03 16:30:00,
2013-03-03 10:35:00,36.5,23.1,29.66,SW,225,0.0,0.0,58,0.00,,---,0.00,VWS V14.00,2013-03-03 16:35:00,
2013-03-03 10:40:00,36.8,23.0,29.66,SW,225,0.0,0.0,57,0.00,,---,0.00,VWS V14.00,2013-03-03 16:40:00,
2013-03-03 10:45:00,37.2,23.4,29.66,WSW,248,0.0,0.0,57,0.00,,---,0.00,VWS V14.00,2013-03-03 16:45:00,
2013-03-03 10:50:00,37.2,23.0,29.66,SSE,158,0.0,0.0,56,0.00,,---,0.00,VWS V14.00,2013-03-03 16:50:00,
2013-03-03 10:55:00,37.4,23.1,29.66,SW,225,0.0,0.4,56,0.00,,---,0.00,VWS V14.00,2013-03-03 16:55:00,
2013-03-03 11:00:00,37.9,23.6,29.65,SSW,202,0.0,0.0,56,0.00,,---,0.00,VWS V14.00,2013-03-03 17:00:00,
2013-03-03 11:05:00,38.4,23.7,29.66,WSW,248,0.0,0.0,55,0.00,,---,0.00,VWS V14.00,2013-03-03 17:05:00,
2013-03-03 11:10:00,38.8,23.6,29.65,SE,135,0.0,0.0,54,0.00,,---,0.00,VWS V14.00,2013-03-03 17:10:00,
2013-03-03 11:15:00,39.3,24.1,29.65,SSW,202,0.0,0.0,54,0.00,,---,0.00,VWS V14.00,2013-03-03 17:15:00,
2013-03-03 11:20:00,40.1,24.4,29.64,South,180,0.0,0.0,53,0.00,,---,0.00,VWS V14.00,2013-03-03 17:20:00,
2013-03-03 11:25:00,40.6,24.4,29.64,South,180,0.0,0.0,52,0.00,,---,0.00,VWS V14.00,2013-03-03 17:25:00,
2013-03-03 11:30:00,40.8,24.5,29.64,South,180,0.0,0.0,52,0.00,,---,0.00,VWS V14.00,2013-03-03 17:30:00,
2013-03-03 11:35:00,41.1,24.4,29.64,South,180,0.0,0.0,51,0.00,,---,0.00,VWS V14.00,2013-03-03 17:35:00,
2013-03-03 11:41:00,41.5,24.3,29.64,NW,315,0.0,0.0,50,0.00,,---,0.00,VWS V14.00,2013-03-03 17:41:00,
2013-03-03 11:46:00,41.0,22.3,29.63,NNW,338,0.0,3.1,47,0.00,,---,0.00,VWS V14.00,2013-03-03 17:46:00,
2013-03-03 11:51:00,40.2,21.6,29.63,NNW,338,0.0,0.0,47,0.00,,---,0.00,VWS V14.00,2013-03-03 17:51:00,
2013-03-03 11:56:00,39.7,20.6,29.64,NNE,22,0.0,0.0,46,0.00,,---,0.00,VWS V14.00,2013-03-03 17:56:00,
2013-03-03 12:01:00,39.0,20.5,29.63,North,0,0.0,0.0,47,0.00,,---,0.00,VWS V14.00,2013-03-03 18:01:00,
2013-03-03 12:06:00,38.4,19.4,29.63,NE,45,0.0,0.0,46,0.00,,---,0.00,VWS V14.00,2013-03-03 18:06:00,
2013-03-03 12:11:00,37.9,19.5,29.63,ESE,112,0.0,0.0,47,0.00,,---,0.00,VWS V14.00,2013-03-03 18:11:00,
2013-03-03 12:17:00,38.1,19.7,29.63,NE,45,0.0,0.0,47,0.00,,---,0.00,VWS V14.00,2013-03-03 18:17:00,
2013-03-03 12:22:00,37.9,20.0,29.63,WSW,248,0.0,0.0,48,0.00,,---,0.00,VWS V14.00,2013-03-03 18:22:00,
2013-03-03 12:27:00,38.1,19.7,29.62,NE,45,0.0,0.0,47,0.00,,---,0.00,VWS V14.00,2013-03-03 18:27:00,
2013-03-03 12:33:00,38.8,21.8,29.62,SSW,202,0.0,0.0,50,0.00,,---,0.00,VWS V14.00,2013-03-03 18:33:00,
2013-03-03 12:38:00,39.3,21.3,29.62,WSW,248,0.0,0.0,48,0.00,,---,0.00,VWS V14.00,2013-03-03 18:38:00,
2013-03-03 12:43:00,39.2,20.7,29.61,WSW,248,0.0,0.0,47,0.00,,---,0.00,VWS V14.00,2013-03-03 18:43:00,
2013-03-03 12:48:00,38.8,20.8,29.61,WSW,248,0.0,0.0,48,0.00,,---,0.00,VWS V14.00,2013-03-03 18:48:00,
2013-03-03 12:53:00,38.8,19.8,29.61,WSW,248,0.0,2.9,46,0.00,,---,0.00,VWS V14.00,2013-03-03 18:53:00,
2013-03-03 12:58:00,38.3,19.4,29.61,NE,45,0.0,0.0,46,0.00,,---,0.00,VWS V14.00,2013-03-03 18:58:00,
2013-03-03 13:03:00,38.3,20.4,29.61,SW,225,0.0,0.0,48,0.00,,---,0.00,VWS V14.00,2013-03-03 19:03:00,
2013-03-03 13:08:00,38.8,21.3,29.61,WSW,248,3.1,3.1,49,0.00,,---,0.00,VWS V14.00,2013-03-03 19:08:00,
2013-03-03 13:13:00,39.2,21.2,29.61,WSW,248,1.5,1.5,48,0.00,,---,0.00,VWS V14.00,2013-03-03 19:13:00,
2013-03-03 13:18:00,39.3,20.8,29.60,WSW,248,0.0,0.0,47,0.00,,---,0.00,VWS V14.00,2013-03-03 19:18:00,
2013-03-03 13:23:00,39.3,20.8,29.60,WSW,248,0.0,0.0,47,0.00,,---,0.00,VWS V14.00,2013-03-03 19:23:00,
2013-03-03 13:28:00,39.9,21.8,29.60,WSW,248,0.0,0.0,48,0.00,,---,0.00,VWS V14.00,2013-03-03 19:28:00,
2013-03-03 13:33:00,39.5,19.9,29.60,NE,45,0.0,0.0,45,0.00,,---,0.00,VWS V14.00,2013-03-03 19:33:00,
2013-03-03 13:38:00,39.0,20.5,29.59,WSW,248,0.0,0.0,47,0.00,,---,0.00,VWS V14.00,2013-03-03 19:38:00,
2013-03-03 13:43:00,39.5,21.5,29.60,SW,225,0.0,0.0,48,0.00,,---,0.00,VWS V14.00,2013-03-03 19:43:00,
2013-03-03 13:48:00,39.9,21.3,29.60,West,270,0.0,0.0,47,0.00,,---,0.00,VWS V14.00,2013-03-03 19:48:00,
2013-03-03 13:53:00,39.9,20.8,29.60,West,270,0.0,0.0,46,0.00,,---,0.00,VWS V14.00,2013-03-03 19:53:00,
2013-03-03 13:58:00,40.1,21.0,29.60,NW,315,0.0,0.0,46,0.00,,---,0.00,VWS V14.00,2013-03-03 19:58:00,
2013-03-03 14:03:00,40.1,21.0,29.60,NW,315,0.0,0.0,46,0.00,,---,0.00,VWS V14.00,2013-03-03 20:03:00,
2013-03-03 14:08:00,40.2,21.6,29.60,SW,225,0.0,0.0,47,0.00,,---,0.00,VWS V14.00,2013-03-03 20:08:00,
2013-03-03 14:14:00,40.6,22.5,29.60,WSW,248,0.0,0.0,48,0.00,,---,0.00,VWS V14.00,2013-03-03 20:14:00,
2013-03-03 14:19:00,40.6,22.0,29.60,West,270,0.0,0.0,47,0.00,,---,0.00,VWS V14.00,2013-03-03 20:19:00,
2013-03-03 14:24:00,40.6,22.5,29.59,WSW,248,0.0,0.0,48,0.00,,---,0.00,VWS V14.00,2013-03-03 20:24:00,
2013-03-03 14:30:00,40.6,22.5,29.59,WNW,292,0.0,0.0,48,0.00,,---,0.00,VWS V14.00,2013-03-03 20:30:00,
2013-03-03 14:35:00,40.8,22.6,29.59,WSW,248,0.0,0.0,48,0.00,,---,0.00,VWS V14.00,2013-03-03 20:35:00,
2013-03-03 14:40:00,40.8,22.6,29.59,WSW,248,0.0,0.0,48,0.00,,---,0.00,VWS V14.00,2013-03-03 20:40:00,
2013-03-03 14:45:00,40.8,23.1,29.58,SW,225,0.0,0.0,49,0.00,,---,0.00,VWS V14.00,2013-03-03 20:45:00,
2013-03-03 14:50:00,41.0,23.3,29.59,WSW,248,0.0,0.0,49,0.00,,---,0.00,VWS V14.00,2013-03-03 20:50:00,
2013-03-03 14:56:00,40.8,23.6,29.58,SW,225,0.0,0.0,50,0.00,,---,0.00,VWS V14.00,2013-03-03 20:56:00,
2013-03-03 15:01:00,40.6,23.4,29.58,SW,225,0.0,0.0,50,0.00,,---,0.00,VWS V14.00,2013-03-03 21:01:00,
2013-03-03 15:06:00,40.6,23.4,29.58,West,270,0.0,2.0,50,0.00,,---,0.00,VWS V14.00,2013-03-03 21:06:00,
2013-03-03 15:11:00,40.6,23.4,29.58,SW,225,0.0,0.0,50,0.00,,---,0.00,VWS V14.00,2013-03-03 21:11:00,
2013-03-03 15:17:00,40.4,23.2,29.58,SW,225,0.0,0.0,50,0.00,,---,0.00,VWS V14.00,2013-03-03 21:17:00,
2013-03-03 15:23:00,40.4,23.2,29.58,WSW,248,0.0,0.0,50,0.00,,---,0.00,VWS V14.00,2013-03-03 21:23:00,
2013-03-03 15:29:00,40.2,23.1,29.58,WSW,248,0.0,0.0,50,0.00,,---,0.00,VWS V14.00,2013-03-03 21:29:00,
2013-03-03 15:34:00,40.2,22.6,29.58,West,270,0.0,0.0,49,0.00,,---,0.00,VWS V14.00,2013-03-03 21:34:00,
2013-03-03 15:39:00,40.1,23.4,29.58,WSW,248,0.0,0.0,51,0.00,,---,0.00,VWS V14.00,2013-03-03 21:39:00,
2013-03-03 15:44:00,39.9,22.8,29.58,South,180,0.0,0.0,50,0.00,,---,0.00,VWS V14.00,2013-03-03 21:44:00,
2013-03-03 15:49:00,39.9,23.3,29.57,South,180,0.0,2.6,51,0.00,,---,0.00,VWS V14.00,2013-03-03 21:49:00,
2013-03-03 15:55:00,39.9,23.3,29.57,South,180,0.0,0.0,51,0.00,,---,0.00,VWS V14.00,2013-03-03 21:55:00,
2013-03-03 16:00:00,39.7,23.1,29.57,South,180,0.0,0.0,51,0.00,,---,0.00,VWS V14.00,2013-03-03 22:00:00,
2013-03-03 16:06:00,39.7,23.5,29.57,South,180,0.0,0.0,52,0.00,,---,0.00,VWS V14.00,2013-03-03 22:06:00,
2013-03-03 16:11:00,39.5,23.4,29.57,South,180,0.0,0.0,52,0.00,,---,0.00,VWS V14.00,2013-03-03 22:11:00,
2013-03-03 16:16:00,39.3,23.2,29.57,SSW,202,0.0,0.0,52,0.00,,---,0.00,VWS V14.00,2013-03-03 22:16:00,
2013-03-03 16:21:00,39.3,23.2,29.57,SSW,202,0.0,0.0,52,0.00,,---,0.00,VWS V14.00,2013-03-03 22:21:00,
2013-03-03 16:26:00,39.0,23.3,29.57,South,180,0.0,0.0,53,0.00,,---,0.00,VWS V14.00,2013-03-03 22:26:00,
2013-03-03 16:31:00,39.0,23.3,29.57,South,180,0.0,0.0,53,0.00,,---,0.00,VWS V14.00,2013-03-03 22:31:00,
2013-03-03 16:37:00,38.8,22.7,29.56,South,180,0.0,0.0,52,0.00,,---,0.00,VWS V14.00,2013-03-03 22:37:00,
2013-03-03 16:42:00,38.4,22.8,29.56,SE,135,0.0,0.0,53,0.00,,---,0.00,VWS V14.00,2013-03-03 22:42:00,
2013-03-03 16:48:00,37.9,21.9,29.56,ENE,68,0.0,0.0,52,0.00,,---,0.00,VWS V14.00,2013-03-03 22:48:00,
2013-03-03 16:53:00,37.4,21.4,29.56,ESE,112,0.0,0.0,52,0.00,,---,0.00,VWS V14.00,2013-03-03 22:53:00,
2013-03-03 16:58:00,36.8,20.8,29.56,ESE,112,0.0,3.8,52,0.00,,---,0.00,VWS V14.00,2013-03-03 22:58:00,
2013-03-03 17:03:00,36.5,21.0,29.56,ESE,112,0.0,0.0,53,0.00,,---,0.00,VWS V14.00,2013-03-03 23:03:00,
2013-03-03 17:10:00,35.4,20.4,29.56,NE,45,0.0,3.3,54,0.00,,---,0.00,VWS V14.00,2013-03-03 23:10:00,
2013-03-03 17:15:00,34.3,19.8,29.56,ENE,68,0.0,0.0,55,0.00,,---,0.00,VWS V14.00,2013-03-03 23:15:00,
2013-03-03 17:20:00,33.9,19.5,29.56,NE,45,0.0,0.0,55,0.00,,---,0.00,VWS V14.00,2013-03-03 23:20:00,
2013-03-03 17:25:00,33.4,19.4,29.56,ENE,68,0.0,0.0,56,0.00,,---,0.00,VWS V14.00,2013-03-03 23:25:00,
2013-03-03 17:30:00,32.9,19.4,29.57,ENE,68,0.0,0.0,57,0.00,,---,0.00,VWS V14.00,2013-03-03 23:30:00,
2013-03-03 17:35:00,32.7,19.6,29.57,ENE,68,0.0,0.0,58,0.00,,---,0.00,VWS V14.00,2013-03-03 23:35:00,
2013-03-03 17:40:00,32.5,19.4,29.57,ENE,68,0.0,0.0,58,0.00,,---,0.00,VWS V14.00,2013-03-03 23:40:00,
2013-03-03 17:45:00,32.3,19.2,29.57,ENE,68,0.0,0.0,58,0.00,,---,0.00,VWS V14.00,2013-03-03 23:45:00,
2013-03-03 17:50:00,32.1,19.4,29.57,ENE,68,0.0,0.0,59,0.00,,---,0.00,VWS V14.00,2013-03-03 23:50:00,
2013-03-03 17:55:00,32.1,19.4,29.57,ENE,68,0.0,0.0,59,0.00,,---,0.00,VWS V14.00,2013-03-03 23:55:00,
2013-03-03 18:00:00,32.1,19.4,29.57,ENE,68,0.0,0.0,59,0.00,,---,0.00,VWS V14.00,2013-03-04 00:00:00,
2013-03-03 18:05:00,32.0,19.3,29.57,ENE,68,0.0,0.0,59,0.00,,---,0.00,VWS V14.00,2013-03-04 00:05:00,
2013-03-03 18:10:00,32.0,19.3,29.57,ENE,68,0.0,0.0,59,0.00,,---,0.00,VWS V14.00,2013-03-04 00:10:00,
2013-03-03 18:15:00,31.8,19.1,29.57,ENE,68,0.0,0.0,59,0.00,,---,0.00,VWS V14.00,2013-03-04 00:15:00,
2013-03-03 18:20:00,31.8,19.1,29.57,ENE,68,0.0,0.0,59,0.00,,---,0.00,VWS V14.00,2013-03-04 00:20:00,
2013-03-03 18:25:00,31.6,18.9,29.57,ENE,68,0.0,0.0,59,0.00,,---,0.00,VWS V14.00,2013-03-04 00:25:00,
2013-03-03 18:30:00,31.6,19.3,29.56,ENE,68,0.0,0.0,60,0.00,,---,0.00,VWS V14.00,2013-03-04 00:30:00,
2013-03-03 18:35:00,31.2,19.0,29.57,ENE,68,0.0,0.0,60,0.00,,---,0.00,VWS V14.00,2013-03-04 00:35:00,
2013-03-03 18:40:00,31.2,19.0,29.57,ENE,68,0.0,0.0,60,0.00,,---,0.00,VWS V14.00,2013-03-04 00:40:00,
2013-03-03 18:45:00,31.1,18.9,29.57,ENE,68,0.0,0.0,60,0.00,,---,0.00,VWS V14.00,2013-03-04 00:45:00,
2013-03-03 18:50:00,30.9,19.0,29.57,ENE,68,0.0,0.0,61,0.00,,---,0.00,VWS V14.00,2013-03-04 00:50:00,
2013-03-03 18:55:00,30.7,18.9,29.56,ENE,68,0.0,0.0,61,0.00,,---,0.00,VWS V14.00,2013-03-04 00:55:00,
2013-03-03 19:00:00,30.7,18.9,29.57,ENE,68,0.0,0.0,61,0.00,,---,0.00,VWS V14.00,2013-03-04 01:00:00,
2013-03-03 19:05:00,30.5,18.7,29.57,ENE,68,0.0,0.0,61,0.00,,---,0.00,VWS V14.00,2013-03-04 01:05:00,
2013-03-03 19:10:00,30.5,18.7,29.57,ENE,68,0.0,0.0,61,0.00,,---,0.00,VWS V14.00,2013-03-04 01:10:00,
2013-03-03 19:15:00,30.3,18.5,29.57,ESE,112,0.0,0.0,61,0.00,,---,0.00,VWS V14.00,2013-03-04 01:15:00,
2013-03-03 19:20:00,30.3,18.9,29.57,ESE,112,0.0,0.0,62,0.00,,---,0.00,VWS V14.00,2013-03-04 01:20:00,
2013-03-03 19:25:00,30.2,18.8,29.58,ESE,112,0.0,0.0,62,0.00,,---,0.00,VWS V14.00,2013-03-04 01:25:00,
2013-03-03 19:30:00,30.2,18.8,29.58,ESE,112,0.0,0.0,62,0.00,,---,0.00,VWS V14.00,2013-03-04 01:30:00,
2013-03-03 19:35:00,30.0,19.0,29.58,SE,135,0.0,0.0,63,0.00,,---,0.00,VWS V14.00,2013-03-04 01:35:00,
2013-03-03 19:40:00,30.0,19.0,29.57,SE,135,0.0,0.0,63,0.00,,---,0.00,VWS V14.00,2013-03-04 01:40:00,
2013-03-03 19:45:00,30.0,19.0,29.57,SE,135,0.0,0.0,63,0.00,,---,0.00,VWS V14.00,2013-03-04 01:45:00,
2013-03-03 19:50:00,30.0,19.0,29.57,SE,135,0.0,0.0,63,0.00,,---,0.00,VWS V14.00,2013-03-04 01:50:00,
2013-03-03 19:55:00,30.0,19.0,29.57,ESE,112,0.0,0.0,63,0.00,,---,0.00,VWS V14.00,2013-03-04 01:55:00,
2013-03-03 20:00:00,30.0,19.0,29.57,ESE,112,0.0,0.0,63,0.00,,---,0.00,VWS V14.00,2013-03-04 02:00:00,
2013-03-03 20:05:00,30.0,19.3,29.57,ESE,112,0.0,0.0,64,0.00,,---,0.00,VWS V14.00,2013-03-04 02:05:00,
2013-03-03 20:10:00,30.0,19.3,29.57,ESE,112,0.0,0.0,64,0.00,,---,0.00,VWS V14.00,2013-03-04 02:10:00,
2013-03-03 20:15:00,30.0,19.3,29.57,SE,135,0.0,0.0,64,0.00,,---,0.00,VWS V14.00,2013-03-04 02:15:00,
2013-03-03 20:20:00,30.0,19.3,29.57,SE,135,0.0,0.0,64,0.00,,---,0.00,VWS V14.00,2013-03-04 02:20:00,
2013-03-03 20:25:00,30.0,19.3,29.57,SE,135,0.0,0.0,64,0.00,,---,0.00,VWS V14.00,2013-03-04 02:25:00,
2013-03-03 20:30:00,30.0,19.7,29.57,SE,135,0.0,0.0,65,0.00,,---,0.00,VWS V14.00,2013-03-04 02:30:00,
2013-03-03 20:35:00,30.0,19.7,29.57,SE,135,0.0,0.0,65,0.00,,---,0.00,VWS V14.00,2013-03-04 02:35:00,
2013-03-03 20:40:00,30.0,19.7,29.56,SE,135,0.0,0.0,65,0.00,,---,0.00,VWS V14.00,2013-03-04 02:40:00,
2013-03-03 20:45:00,30.0,19.7,29.57,SE,135,0.0,0.0,65,0.00,,---,0.00,VWS V14.00,2013-03-04 02:45:00,
2013-03-03 20:50:00,30.0,19.7,29.57,SE,135,0.0,0.0,65,0.00,,---,0.00,VWS V14.00,2013-03-04 02:50:00,
2013-03-03 20:55:00,30.0,19.7,29.57,SE,135,0.0,0.0,65,0.00,,---,0.00,VWS V14.00,2013-03-04 02:55:00,
2013-03-03 21:00:00,30.0,19.7,29.57,SE,135,0.0,0.0,65,0.00,,---,0.00,VWS V14.00,2013-03-04 03:00:00,
2013-03-03 21:05:00,30.0,19.7,29.56,SE,135,0.0,0.0,65,0.00,,---,0.00,VWS V14.00,2013-03-04 03:05:00,
2013-03-03 21:10:00,30.0,19.7,29.56,SE,135,0.0,0.0,65,0.00,,---,0.00,VWS V14.00,2013-03-04 03:10:00,
2013-03-03 21:15:00,29.8,19.8,29.56,SE,135,0.0,0.0,66,0.00,,---,0.00,VWS V14.00,2013-03-04 03:15:00,
2013-03-03 21:20:00,29.8,19.8,29.56,SE,135,0.0,0.0,66,0.00,,---,0.00,VWS V14.00,2013-03-04 03:20:00,
2013-03-03 21:25:00,29.8,19.8,29.56,ESE,112,0.0,0.0,66,0.00,,---,0.00,VWS V14.00,2013-03-04 03:25:00,
2013-03-03 21:30:00,29.8,19.8,29.56,ESE,112,0.0,0.0,66,0.00,,---,0.00,VWS V14.00,2013-03-04 03:30:00,
2013-03-03 21:35:00,29.6,19.6,29.57,ESE,112,0.0,0.0,66,0.00,,---,0.00,VWS V14.00,2013-03-04 03:35:00,
2013-03-03 21:40:00,29.6,19.6,29.58,ESE,112,0.0,0.0,66,0.00,,---,0.00,VWS V14.00,2013-03-04 03:40:00,
2013-03-03 21:46:00,29.6,19.6,29.57,ESE,112,0.0,0.0,66,0.00,,---,0.00,VWS V14.00,2013-03-04 03:46:00,
2013-03-03 21:51:00,29.6,20.0,29.57,ESE,112,0.0,0.0,67,0.00,,---,0.00,VWS V14.00,2013-03-04 03:51:00,
2013-03-03 21:56:00,29.6,20.0,29.57,ESE,112,0.0,0.0,67,0.00,,---,0.00,VWS V14.00,2013-03-04 03:56:00,
2013-03-03 22:01:00,29.6,20.0,29.57,ESE,112,0.0,0.0,67,0.00,,---,0.00,VWS V14.00,2013-03-04 04:01:00,
2013-03-03 22:06:00,29.6,20.0,29.57,SE,135,0.0,0.0,67,0.00,,---,0.00,VWS V14.00,2013-03-04 04:06:00,
2013-03-03 22:11:00,29.6,20.0,29.57,SE,135,0.0,0.0,67,0.00,,---,0.00,VWS V14.00,2013-03-04 04:11:00,
2013-03-03 22:16:00,29.6,20.4,29.56,ESE,112,0.0,0.0,68,0.00,,---,0.00,VWS V14.00,2013-03-04 04:16:00,
2013-03-03 22:21:00,29.6,20.4,29.57,ESE,112,0.0,0.0,68,0.00,,---,0.00,VWS V14.00,2013-03-04 04:21:00,
2013-03-03 22:26:00,29.6,20.4,29.57,ESE,112,0.0,0.0,68,0.00,,---,0.00,VWS V14.00,2013-03-04 04:26:00,
2013-03-03 22:31:00,29.6,20.4,29.57,East,90,0.0,0.0,68,0.00,,---,0.00,VWS V14.00,2013-03-04 04:31:00,
2013-03-03 22:36:00,29.8,20.5,29.56,ESE,112,0.0,0.0,68,0.00,,---,0.00,VWS V14.00,2013-03-04 04:36:00,
2013-03-03 22:41:00,29.6,20.4,29.56,ESE,112,0.0,0.0,68,0.00,,---,0.00,VWS V14.00,2013-03-04 04:41:00,
2013-03-03 22:46:00,29.8,20.9,29.56,SE,135,0.0,0.0,69,0.00,,---,0.00,VWS V14.00,2013-03-04 04:46:00,
2013-03-03 22:51:00,29.8,20.9,29.56,SE,135,0.0,0.0,69,0.00,,---,0.00,VWS V14.00,2013-03-04 04:51:00,
2013-03-03 22:56:00,29.8,20.9,29.56,ESE,112,0.0,0.0,69,0.00,,---,0.00,VWS V14.00,2013-03-04 04:56:00,
2013-03-03 23:00:00,29.8,20.9,29.57,ESE,112,0.0,0.0,69,0.00,,---,0.00,VWS V14.00,2013-03-04 05:00:00,
2013-03-03 23:02:00,29.8,20.9,29.57,ESE,112,0.0,0.0,69,0.00,,---,0.00,VWS V14.00,2013-03-04 05:02:00,
2013-03-03 23:05:00,29.8,20.9,29.57,ESE,112,0.0,0.0,69,0.00,,---,0.00,VWS V14.00,2013-03-04 05:05:00,
2013-03-03 23:06:00,29.8,20.9,29.57,ESE,112,0.0,0.0,69,0.00,,---,0.00,VWS V14.00,2013-03-04 05:06:00,
2013-03-03 23:11:00,29.8,20.9,29.57,ESE,112,0.0,0.0,69,0.00,,---,0.00,VWS V14.00,2013-03-04 05:11:00,
2013-03-03 23:16:00,29.8,20.9,29.57,ESE,112,0.0,0.0,69,0.00,,---,0.00,VWS V14.00,2013-03-04 05:16:00,
2013-03-03 23:21:00,29.8,20.9,29.57,ESE,112,0.0,0.0,69,0.00,,---,0.00,VWS V14.00,2013-03-04 05:21:00,
2013-03-03 23:26:00,29.8,21.2,29.57,ESE,112,0.0,0.0,70,0.00,,---,0.00,VWS V14.00,2013-03-04 05:26:00,
2013-03-03 23:31:00,29.8,20.9,29.57,ESE,112,0.0,0.0,69,0.00,,---,0.00,VWS V14.00,2013-03-04 05:31:00,
2013-03-03 23:36:00,29.8,20.9,29.56,ESE,112,0.0,0.0,69,0.00,,---,0.00,VWS V14.00,2013-03-04 05:36:00,
2013-03-03 23:41:00,29.8,20.9,29.57,ENE,68,0.0,0.0,69,0.00,,---,0.00,VWS V14.00,2013-03-04 05:41:00,
2013-03-03 23:46:00,30.0,21.4,29.56,ESE,112,1.7,1.7,70,0.00,,---,0.00,VWS V14.00,2013-03-04 05:46:00,
2013-03-03 23:51:00,30.0,21.4,29.56,East,90,0.0,0.0,70,0.00,,---,0.00,VWS V14.00,2013-03-04 05:51:00,
2013-03-03 23:56:00,30.0,21.4,29.56,East,90,0.0,0.0,70,0.00,,---,0.00,VWS V14.00,2013-03-04 05:56:00,